Wind_Speed
44 41 38 38 36 32 23 23 27 33 35 38 37 30 32 26 20 14 15 14 17 13 11 7 15 13 11 9 6 4 4 2 4 6 8 9 9 10 8 9 7 7 8 9 8 9 9 9 10
47 46 43 41 40 36 25 30 30 32 37 42 42 34 31 28 24 22 21 23 23 22 20 18 16 12 10 8 9 7 5 4 2 4 6 8 9 9 9 9 9 8 7 8 8 8 9 11 11
49 49 48 47 45 38 30 33 34 35 38 40 45 39 32 27 24 23 25 26 25 24 22 16 16 10 9 10 12 11 7 5 6 4 4 4 6 9 10 11 10 10 7 8 9 10 11 12 12
49 49 51 52 46 39 33 36 34 35 40 41 44 45 39 33 27 27 27 27 29 27 23 24 19 18 12 11 13 14 10 8 8 7 5 5 6 7 8 9 10 9 8 9 10 11 11 12 12
52 51 54 53 50 42 36 39 38 35 42 44 44 47 47 36 31 29 30 33 34 32 28 24 24 23 17 15 15 16 14 10 10 10 9 7 8 7 8 9 10 10 9 9 10 9 9 10 11
47 53 57 55 49 43 40 42 41 40 48 48 46 46 48 45 40 35 35 36 36 35 32 29 29 26 23 20 18 17 17 14 11 12 12 11 10 10 10 10 11 10 9 9 10 9 10 10 9
44 46 50 53 51 47 43 43 44 43 44 53 51 49 51 48 46 43 37 38 38 37 36 33 33 31 26 23 19 20 19 16 13 12 13 12 13 13 14 12 11 11 10 10 12 9 10 13 13
41 45 47 48 46 43 39 46 47 44 45 47 53 55 52 54 51 46 44 43 41 36 36 40 33 31 28 27 25 23 21 18 17 15 13 14 13 13 15 14 12 11 10 11 12 13 13 15 17
39 44 45 43 41 33 31 40 50 52 51 50 52 58 62 61 60 56 54 46 45 41 39 39 41 40 35 34 32 30 27 24 21 18 17 16 13 14 14 14 13 13 13 14 13 13 14 14 16
39 41 40 39 39 36 34 42 51 55 55 55 57 55 56 64 65 62 61 58 51 45 42 41 39 41 43 46 40 37 32 29 25 23 20 18 17 15 14 14 16 16 17 18 16 14 16 16 16
40 41 41 39 39 41 40 44 50 55 58 59 62 59 56 57 62 65 65 61 59 55 53 47 45 46 45 45 46 43 38 33 31 27 25 23 20 18 19 19 18 18 18 20 20 18 17 16 18
43 43 43 40 41 42 42 44 46 57 55 58 62 64 65 64 59 57 58 56 56 58 58 48 54 48 50 47 47 42 40 38 35 33 30 28 26 24 23 23 22 21 22 23 22 20 20 19 18
46 47 47 44 43 43 43 46 46 48 52 61 61 64 67 65 65 61 53 52 43 39 42 45 54 48 46 47 48 45 41 41 40 38 35 36 33 30 28 28 27 26 25 26 26 25 25 25 23
44 45 46 46 42 43 47 46 49 45 52 60 63 63 65 65 63 64 63 57 45 37 38 42 46 50 61 46 49 50 47 44 41 41 41 39 40 34 33 33 32 32 30 29 29 27 29 29 30
40 44 45 45 45 44 46 47 43 42 54 59 60 64 66 66 66 64 63 62 57 50 45 40 44 48 51 61 47 47 51 51 50 44 44 42 45 44 36 39 37 37 39 31 33 32 32 35 33
36 41 44 43 44 42 41 46 40 39 44 62 64 61 61 64 66 65 60 54 54 47 43 44 46 46 50 54 57 47 47 52 50 49 50 45 49 46 43 40 42 44 45 35 35 37 37 37 39
32 35 38 39 40 43 44 50 46 42 46 48 63 67 63 64 64 64 60 56 55 54 49 38 38 41 48 49 53 57 54 54 59 53 56 60 57 55 44 46 50 49 49 41 40 40 41 42 42
31 35 36 40 37 43 47 52 52 49 47 52 56 66 72 69 64 63 67 64 60 55 52 42 31 39 35 40 44 42 49 61 59 63 63 60 58 54 43 48 50 54 58 53 45 44 43 43 44
33 35 38 40 42 46 50 54 55 54 50 49 51 57 66 71 70 69 67 68 64 60 54 41 45 50 41 48 49 51 49 51 62 66 62 66 56 61 54 62 56 58 58 53 50 47 49 47 44
39 40 42 43 44 48 48 52 54 55 52 52 49 51 59 64 70 77 75 70 67 62 60 57 49 48 48 51 56 56 52 59 63 63 66 56 62 72 64 63 64 62 69 59 57 58 53 51 49
38 42 44 47 46 50 51 53 52 54 53 54 51 50 52 55 61 66 68 70 67 63 59 53 47 46 46 48 51 53 50 56 68 65 59 57 62 68 53 49 61 66 65 67 60 67 64 59 49
37 36 43 45 49 51 49 55 50 50 53 56 56 53 53 55 58 61 63 60 57 55 59 58 51 51 51 49 51 53 51 49 57 66 72 67 56 53 58 63 62 42 56 55 62 71 67 55 59
37 33 35 39 45 47 48 52 49 47 47 52 57 57 56 57 59 62 58 54 50 50 55 57 54 53 52 51 50 48 50 50 53 53 58 71 72 68 57 60 54 67 54 52 50 57 68 57 56
35 38 36 36 40 50 41 48 43 41 42 45 58 57 59 58 53 43 43 46 50 50 51 50 52 52 50 48 48 47 47 51 52 54 53 56 59 70 77 74 64 70 65 63 63 59 64 50 62
38 42 45 43 41 42 41 44 27 26 32 40 50 66 63 59 55 44 46 48 50 49 51 50 48 48 48 46 48 49 49 51 53 55 57 55 53 51 52 62 66 55 57 62 62 63 63 65 59
43 46 45 50 49 46 45 46 28 28 30 30 37 54 56 57 51 50 50 49 48 45 46 48 52 53 53 50 50 51 51 51 50 51 55 58 53 53 52 47 53 58 60 59 57 58 69 74 67
54 52 56 59 45 42 46 38 18 29 36 31 36 33 50 44 43 45 46 50 47 44 37 36 40 41 43 47 51 54 52 47 49 49 51 51 54 55 53 51 51 52 55 57 53 54 58 55 60
46 43 44 42 43 52 44 41 35 24 25 29 29 35 39 40 43 46 46 44 42 38 36 36 35 37 37 37 43 52 54 50 49 50 50 49 50 48 49 49 43 43 42 42 47 46 45 52 49
33 30 31 35 32 37 35 26 29 31 34 36 33 41 39 42 41 48 51 50 53 46 45 44 43 41 40 39 39 41 46 49 51 52 52 50 48 49 47 48 48 46 42 43 37 41 40 41 41
27 25 25 27 36 26 25 24 28 25 29 34 34 34 30 33 47 47 50 49 49 50 49 47 45 44 43 42 41 41 41 43 44 45 47 49 51 51 49 47 46 45 46 44 44 41 36 36 45
Wind_Direction
235 235 233 234 241 234 231 216 212 223 216 201 206 213 216 220 223 244 241 253 257 265 290 276 295 284 296 293 292 310 313 330 339 341 345 350 352 340 339 337 341 343 350 7 15 13 6 0 359
234 238 239 233 234 236 229 221 220 225 226 212 210 214 216 221 230 242 250 258 255 258 271 271 286 263 287 294 292 302 299 286 302 331 341 350 348 335 331 331 328 334 351 2 353 347 347 354 353
235 236 237 238 234 231 234 237 229 226 229 227 215 217 219 223 233 248 251 254 250 253 255 276 263 268 281 296 296 297 293 287 294 298 314 343 337 326 325 325 325 328 348 355 349 341 338 343 352
235 235 236 235 237 232 233 236 235 223 227 225 223 222 223 219 238 241 249 253 259 258 258 254 265 259 270 279 290 287 286 273 281 277 279 292 298 309 317 323 328 332 344 352 347 341 341 341 346
236 237 238 236 238 235 232 235 237 232 221 221 225 222 221 226 229 239 247 251 252 256 255 252 260 256 258 262 272 273 268 262 278 286 274 277 286 290 298 309 318 321 330 348 346 346 338 336 342
236 237 237 241 237 232 232 235 234 233 219 220 223 225 226 227 235 236 239 247 249 253 253 253 257 259 258 258 266 268 270 258 255 262 271 277 285 294 298 305 308 309 318 341 344 338 340 337 335
235 237 236 238 240 231 231 235 238 234 231 221 224 228 226 229 233 237 235 245 251 250 252 255 255 257 256 258 263 268 268 265 257 263 260 267 281 293 296 300 304 310 318 319 336 328 327 326 325
234 237 236 235 236 235 229 227 236 233 233 229 226 226 232 228 230 231 234 232 242 248 251 254 254 256 253 261 268 263 261 259 270 262 258 264 275 285 292 294 297 304 312 314 323 327 320 309 325
235 238 238 241 241 234 223 228 225 231 228 233 237 232 230 235 233 231 231 229 233 239 244 247 251 256 263 268 269 266 260 257 257 258 275 267 274 278 291 286 284 288 301 301 312 320 326 316 319
240 243 245 241 241 232 217 226 223 227 227 231 241 244 244 236 240 242 237 233 227 232 238 242 246 251 256 262 264 267 261 260 258 256 256 260 271 268 284 283 288 288 294 291 294 310 315 318 314
242 243 244 242 239 235 219 225 219 227 230 227 233 238 240 242 242 245 246 248 248 237 238 243 242 245 251 256 262 261 257 253 256 255 256 258 257 261 270 277 284 284 283 285 288 298 304 310 308
245 246 245 241 241 238 228 222 223 225 228 231 233 236 235 241 244 245 245 245 246 250 247 247 245 244 246 249 253 251 252 248 248 252 252 255 254 259 258 263 270 277 278 283 287 291 296 299 297
244 246 248 246 242 240 236 227 232 229 233 230 232 236 240 241 247 247 245 246 245 245 245 247 244 246 247 243 240 242 244 247 245 247 245 254 239 246 257 260 269 271 280 280 284 287 289 292 288
244 245 248 251 249 248 244 235 235 235 237 233 233 231 239 242 241 246 247 249 244 240 239 240 242 242 243 245 238 238 239 240 243 244 248 253 261 252 253 259 266 270 271 278 278 280 282 285 285
247 248 247 249 251 248 250 246 242 236 234 236 236 231 232 238 241 245 252 253 250 242 235 233 240 241 238 240 238 239 240 242 244 242 241 245 253 239 253 256 261 260 264 271 273 273 276 280 285
245 245 245 246 251 253 252 243 243 241 236 233 236 239 233 236 240 244 242 244 251 251 253 256 247 238 237 235 236 237 239 242 246 248 252 238 247 254 247 253 260 264 263 255 270 274 274 277 283
252 252 252 248 251 253 252 244 238 235 235 229 234 240 240 238 238 240 243 245 246 254 254 254 244 241 242 241 242 235 232 234 230 236 247 253 248 242 242 254 257 253 260 258 263 268 274 277 280
251 251 248 248 243 247 248 247 248 242 233 231 229 232 237 239 244 243 245 248 251 254 255 254 247 230 235 245 236 239 236 237 242 231 225 234 242 253 244 248 256 263 264 265 254 261 265 275 279
254 254 255 253 251 245 250 249 248 250 245 239 236 236 239 239 243 244 246 247 248 249 254 252 258 255 243 251 247 250 250 238 242 246 242 229 232 247 243 234 234 245 256 260 254 255 260 265 270
261 260 259 258 255 255 251 251 250 251 253 246 239 234 237 239 241 245 246 251 254 256 255 252 251 249 251 249 246 246 250 242 237 245 247 250 246 240 239 251 246 246 248 248 250 259 260 268 263
265 267 267 266 260 262 258 252 252 253 252 254 247 242 236 238 240 242 245 247 248 252 255 255 255 256 254 252 249 245 249 239 237 240 245 250 249 240 248 261 260 257 256 250 254 262 260 265 265
269 272 272 272 269 265 258 262 253 254 248 249 252 246 245 241 238 240 243 244 244 244 249 250 249 250 251 250 246 245 247 241 239 240 242 243 246 250 255 257 252 262 267 249 269 271 263 270 268
277 272 272 269 266 265 260 263 254 251 253 247 253 253 246 241 242 239 241 242 243 244 244 246 245 245 246 246 247 249 251 252 240 244 247 248 245 247 249 253 260 252 258 266 271 271 268 262 265
278 277 277 274 276 270 264 264 259 257 257 247 239 239 243 247 245 248 245 240 237 237 239 240 240 242 243 244 244 244 246 249 248 244 248 252 251 249 249 254 260 268 270 265 264 267 266 269 267
280 284 276 264 266 283 274 268 280 259 251 251 244 236 241 249 250 250 247 248 249 248 244 241 242 243 243 244 244 243 242 244 247 245 248 250 251 254 258 257 259 262 268 269 269 267 270 272 269
285 279 271 268 270 283 269 270 278 267 258 255 263 245 243 247 249 245 247 243 246 247 246 240 240 240 242 239 240 242 241 242 245 248 248 249 253 255 258 261 261 263 265 267 270 274 269 266 270
285 279 279 280 277 270 261 267 259 268 266 255 261 256 242 242 242 242 236 240 242 245 239 241 241 244 244 242 239 242 244 243 242 243 246 247 249 254 258 261 262 264 266 268 270 276 278 277 271
285 280 278 275 271 271 258 256 273 251 256 251 252 245 240 239 237 236 229 227 228 228 233 237 237 240 240 238 237 238 241 242 241 242 245 249 250 251 256 255 260 262 262 266 266 272 272 272 272
295 285 280 280 273 271 263 248 269 266 254 250 252 246 249 237 232 232 228 225 226 222 225 231 237 242 245 247 243 239 238 240 241 242 244 245 246 249 251 252 254 258 255 260 264 272 265 262 257
307 297 288 267 254 257 267 259 272 267 265 249 245 248 263 263 229 230 232 230 231 227 227 231 240 244 250 250 246 242 240 239 240 242 243 244 244 244 247 251 252 252 254 257 263 267 270 250 239
Height
5848 5852 5857 5861 5866 5867 5873 5876 5873 5872 5873 5875 5873 5877 5880 5881 5882 5888 5888 5890 5892 5895 5897 5898 5899 5900 5900 5900 5901 5901 5902 5903 5905 5907 5907 5907 5907 5907 5907 5906 5905 5904 5904 5903 5901 5901 5899 5897 5895
5842 5847 5850 5855 5860 5863 5869 5869 5868 5871 5869 5872 5871 5873 5876 5878 5879 5882 5885 5888 5890 5893 5895 5897 5898 5898 5899 5899 5901 5901 5902 5902 5903 5904 5905 5906 5907 5907 5907 5907 5907 5905 5904 5903 5902 5901 5899 5898 5896
5837 5840 5843 5846 5852 5860 5864 5863 5865 5867 5865 5868 5872 5872 5873 5875 5877 5879 5882 5884 5887 5890 5893 5895 5897 5897 5898 5899 5899 5900 5902 5902 5903 5904 5904 5905 5906 5906 5907 5907 5906 5905 5903 5902 5901 5900 5899 5897 5895
5831 5835 5837 5839 5848 5855 5859 5856 5858 5862 5862 5864 5867 5870 5871 5873 5874 5877 5879 5881 5884 5886 5890 5892 5895 5895 5896 5897 5898 5899 5900 5902 5903 5903 5904 5904 5904 5905 5906 5906 5906 5905 5903 5901 5900 5900 5898 5897 5895
5824 5827 5828 5832 5843 5851 5852 5851 5854 5856 5857 5859 5860 5864 5866 5868 5871 5874 5877 5878 5880 5882 5885 5889 5892 5893 5894 5895 5896 5897 5898 5900 5903 5903 5904 5904 5904 5904 5905 5905 5905 5904 5903 5901 5900 5899 5897 5896 5895
5815 5819 5822 5825 5836 5845 5845 5844 5848 5848 5846 5852 5853 5856 5861 5862 5866 5870 5873 5874 5878 5879 5881 5885 5887 5890 5891 5893 5894 5896 5897 5899 5900 5901 5903 5904 5904 5904 5904 5904 5904 5903 5903 5902 5900 5899 5897 5896 5895
5808 5812 5816 5820 5828 5835 5838 5839 5842 5842 5844 5843 5847 5849 5853 5856 5858 5862 5869 5871 5871 5875 5878 5880 5883 5885 5887 5890 5891 5895 5896 5897 5898 5899 5900 5901 5903 5903 5903 5903 5904 5904 5904 5902 5899 5897 5896 5895 5894
5803 5804 5810 5814 5819 5828 5831 5832 5836 5838 5838 5835 5839 5841 5843 5846 5849 5854 5859 5864 5867 5871 5875 5877 5880 5882 5883 5886 5889 5891 5893 5896 5897 5898 5898 5899 5900 5901 5901 5902 5902 5903 5903 5901 5898 5897 5895 5894 5893
5795 5797 5803 5810 5814 5825 5825 5826 5827 5829 5832 5828 5834 5834 5836 5835 5840 5844 5850 5857 5862 5866 5868 5872 5875 5877 5880 5882 5885 5888 5889 5890 5893 5896 5897 5897 5898 5899 5899 5899 5899 5900 5900 5899 5897 5894 5893 5893 5892
5789 5794 5800 5804 5806 5811 5817 5815 5817 5819 5824 5827 5826 5829 5832 5830 5833 5835 5842 5848 5855 5859 5862 5865 5869 5872 5875 5877 5880 5884 5886 5888 5890 5891 5893 5894 5896 5896 5896 5897 5897 5898 5898 5896 5895 5893 5892 5891 5890
5784 5788 5790 5794 5795 5799 5807 5805 5808 5808 5812 5820 5820 5822 5823 5823 5826 5828 5832 5838 5848 5857 5856 5858 5861 5865 5868 5870 5873 5878 5881 5883 5885 5887 5889 5890 5891 5892 5893 5893 5894 5895 5894 5893 5892 5892 5890 5889 5888
5777 5778 5780 5785 5787 5789 5797 5797 5797 5798 5808 5809 5813 5812 5815 5815 5817 5820 5822 5827 5834 5841 5849 5851 5853 5857 5859 5863 5867 5870 5875 5878 5880 5881 5883 5886 5887 5888 5889 5888 5889 5890 5890 5890 5889 5888 5888 5887 5885
5770 5771 5771 5775 5777 5780 5783 5789 5789 5795 5799 5798 5802 5803 5804 5810 5810 5813 5817 5819 5826 5833 5837 5841 5845 5849 5851 5854 5858 5862 5867 5871 5873 5874 5877 5880 5879 5880 5882 5883 5884 5885 5886 5886 5886 5885 5884 5884 5882
5760 5763 5764 5767 5772 5773 5773 5779 5779 5793 5788 5789 5792 5797 5799 5802 5804 5805 5808 5814 5820 5823 5827 5831 5834 5837 5841 5845 5849 5855 5859 5862 5865 5868 5871 5873 5874 5874 5875 5877 5879 5879 5881 5881 5881 5880 5879 5879 5878
5753 5754 5756 5759 5760 5762 5761 5767 5778 5782 5779 5780 5783 5789 5792 5793 5795 5799 5800 5805 5808 5814 5817 5819 5823 5828 5830 5835 5839 5844 5850 5854 5857 5860 5863 5865 5866 5862 5868 5870 5872 5872 5873 5876 5875 5875 5873 5873 5873
5745 5746 5749 5753 5751 5751 5753 5762 5767 5768 5769 5772 5774 5777 5782 5785 5787 5789 5792 5793 5796 5803 5808 5811 5816 5818 5822 5825 5829 5834 5840 5845 5850 5853 5855 5855 5858 5858 5858 5863 5865 5865 5865 5868 5868 5869 5868 5868 5867
5739 5740 5742 5745 5743 5740 5740 5749 5754 5753 5754 5758 5763 5766 5770 5775 5778 5781 5782 5786 5788 5793 5797 5802 5806 5809 5813 5816 5819 5823 5829 5832 5830 5836 5842 5845 5847 5849 5851 5856 5857 5854 5855 5858 5861 5861 5862 5861 5860
5730 5730 5732 5732 5735 5729 5731 5738 5739 5741 5741 5748 5750 5751 5753 5758 5765 5771 5773 5777 5780 5782 5787 5791 5797 5799 5802 5806 5810 5814 5817 5817 5814 5815 5818 5826 5830 5835 5838 5845 5847 5846 5847 5848 5851 5852 5854 5855 5854
5723 5723 5722 5723 5722 5719 5722 5726 5727 5725 5729 5738 5744 5745 5744 5749 5753 5754 5757 5761 5768 5772 5775 5781 5787 5790 5792 5795 5800 5804 5808 5808 5807 5806 5813 5810 5817 5823 5825 5830 5833 5835 5837 5838 5840 5844 5845 5846 5848
5715 5715 5714 5714 5711 5709 5714 5714 5716 5715 5717 5725 5732 5735 5735 5737 5740 5742 5747 5752 5757 5761 5765 5770 5776 5778 5779 5783 5787 5791 5795 5796 5796 5796 5799 5802 5809 5814 5816 5819 5824 5825 5826 5828 5829 5833 5837 5837 5839
5707 5705 5705 5704 5703 5701 5699 5700 5707 5707 5708 5711 5718 5721 5724 5726 5728 5730 5733 5740 5745 5750 5753 5757 5762 5765 5768 5770 5772 5777 5781 5783 5785 5787 5789 5794 5800 5804 5806 5806 5810 5817 5818 5818 5819 5820 5825 5828 5830
5696 5699 5694 5693 5691 5691 5690 5686 5695 5699 5698 5699 5704 5708 5711 5715 5716 5718 5721 5728 5736 5740 5742 5745 5750 5753 5754 5757 5760 5763 5766 5770 5776 5778 5777 5783 5788 5790 5792 5796 5801 5805 5808 5806 5810 5812 5816 5818 5820
5689 5688 5685 5683 5679 5677 5679 5674 5685 5684 5686 5693 5693 5695 5698 5702 5705 5707 5711 5716 5722 5725 5730 5733 5737 5739 5742 5744 5748 5752 5754 5757 5762 5765 5768 5772 5779 5782 5787 5787 5791 5793 5794 5795 5801 5806 5806 5805 5808
5680 5677 5675 5672 5670 5665 5672 5666 5668 5674 5678 5678 5680 5679 5679 5684 5690 5696 5701 5704 5709 5712 5715 5720 5724 5727 5731 5734 5737 5741 5742 5744 5749 5753 5756 5758 5764 5769 5773 5775 5775 5775 5781 5786 5791 5793 5797 5798 5800
5673 5668 5664 5662 5660 5658 5658 5656 5660 5663 5661 5659 5659 5661 5666 5673 5679 5686 5690 5694 5697 5700 5705 5708 5713 5716 5719 5722 5725 5728 5731 5733 5737 5741 5745 5748 5751 5756 5760 5763 5766 5766 5770 5773 5777 5781 5784 5786 5791
5663 5660 5656 5647 5647 5648 5646 5645 5653 5650 5650 5650 5645 5649 5657 5662 5667 5672 5679 5682 5685 5688 5691 5695 5699 5703 5706 5710 5712 5713 5718 5722 5726 5730 5734 5738 5741 5744 5747 5750 5753 5756 5758 5762 5766 5770 5773 5775 5777
5646 5646 5642 5637 5638 5633 5636 5639 5642 5642 5641 5640 5637 5639 5644 5650 5653 5657 5662 5668 5674 5677 5681 5685 5688 5690 5693 5696 5700 5702 5706 5711 5715 5719 5723 5727 5731 5734 5736 5740 5743 5744 5746 5751 5754 5757 5760 5761 5765
5634 5632 5629 5629 5627 5622 5624 5629 5632 5632 5631 5631 5631 5630 5634 5639 5642 5646 5650 5656 5661 5665 5670 5673 5676 5679 5681 5683 5685 5689 5694 5699 5703 5707 5711 5715 5720 5723 5725 5729 5731 5733 5736 5740 5744 5746 5748 5752 5755
5626 5621 5620 5619 5620 5619 5614 5619 5620 5619 5621 5622 5623 5624 5626 5630 5633 5637 5640 5645 5649 5652 5655 5658 5663 5666 5669 5673 5677 5680 5684 5688 5692 5696 5699 5704 5707 5711 5714 5718 5721 5724 5727 5731 5733 5736 5736 5740 5744
5617 5614 5612 5609 5609 5609 5606 5610 5609 5610 5611 5614 5614 5615 5619 5623 5625 5627 5630 5634 5638 5641 5643 5647 5651 5655 5659 5663 5667 5671 5674 5677 5680 5684 5688 5692 5696 5699 5702 5705 5710 5714 5717 5720 5722 5724 5724 5727 5734